This is the latest recevied weather packets stored in our database for station/object JA0BES-13. If no packets are shown the sender has not sent any weather packets the latest 10 day(s).
| Time | Temp. | Humidity | Pressure | Rain* | Wind** | Luminosity | Snow |
|---|---|---|---|---|---|---|---|
| 1777884860 | 16.67° C | 57% | 1003.4 hPa | 5.59 mm | - | - | - |
| 1777884259 | 16.67° C | 57% | 1003.2 hPa | 5.59 mm | - | - | - |
| 1777883659 | 17.22° C | 56% | 1003 hPa | 5.59 mm | - | - | - |
| 1777883058 | 17.78° C | 55% | 1002.9 hPa | 5.59 mm | - | - | - |
| 1777882458 | 18.33° C | 53% | 1002.6 hPa | 5.59 mm | - | - | - |
| 1777881858 | 19.44° C | 51% | 1002.5 hPa | 5.59 mm | - | - | - |
| 1777881258 | 20° C | 55% | 1001.8 hPa | 5.59 mm | - | - | - |
| 1777880657 | 20° C | 52% | 1001.7 hPa | 5.59 mm | - | - | - |
| 1777880057 | 20.56° C | 60% | 1001.2 hPa | 5.59 mm | - | - | - |
| 1777879456 | 20.56° C | 61% | 1000.8 hPa | 5.59 mm | - | - | - |
| 1777878856 | 20.56° C | 59% | 1000.3 hPa | 5.59 mm | - | - | - |
| 1777878256 | 20.56° C | 53% | 1000.1 hPa | 5.59 mm | - | - | - |
| 1777877656 | 20° C | 53% | 999.8 hPa | 5.59 mm | - | - | - |
| 1777877055 | 20° C | 49% | 999.7 hPa | 5.59 mm | - | - | - |
| 1777876455 | 20° C | 49% | 999.6 hPa | 5.59 mm | - | - | - |
| 1777875854 | 19.44° C | 57% | 999.7 hPa | 5.59 mm | - | - | - |
| 1777875254 | 19.44° C | 57% | 999.6 hPa | 5.59 mm | - | - | - |
| 1777874653 | 19.44° C | 65% | 999.5 hPa | 5.59 mm | - | - | - |
| 1777874053 | 20° C | 71% | 999 hPa | 5.59 mm | - | - | - |
| 1777873453 | 20.56° C | 71% | 999.1 hPa | 5.59 mm | - | - | - |
| 1777872853 | 21.11° C | 71% | 998.4 hPa | 5.59 mm | - | - | - |
| 1777872252 | 21.67° C | 72% | 998.5 hPa | 5.59 mm | - | - | - |
| 1777871652 | 22.22° C | 72% | 998.2 hPa | 5.59 mm | - | - | - |
| 1777871051 | 22.22° C | 73% | 998.1 hPa | 5.59 mm | - | - | - |
| 1777870451 | 22.78° C | 74% | 998 hPa | 5.59 mm | - | - | - |
* Rain since midnight (hover to see other rain measurements)
** Current wind speed in m/s (hover to see current wind gust speed)